Regional Weather Roundup
Issued by NWS Raleigh/Durham, NC

Current Version | Previous Version | Text Only | Print | Product List | Glossary On
Versions: 1 2 3 4 5 6 7 8 9 10 11 12 13 14 15 16 17 18 19 20 21 22 23 24 25 26 27 28 29 30 31 32 33 34 35 36 37 38 39 40 41 42 43 44 45 46 47 48 49 50
000 ASUS42 KRAH 261810 RWRRAH NORTH CAROLINA WEATHER ROUNDUP NATIONAL WEATHER SERVICE RALEIGH NC 200 PM EDT SUN JUN 26 2016 NOTE: "FAIR" INDICATES FEW OR NO CLOUDS BELOW 12,000 FEET WITH NO SIGNIFICANT WEATHER AND/OR OBSTRUCTIONS TO VISIBILITY. NCZ001-053-055-056-065-067-261900- WESTERN NORTH CAROLINA CITY SKY/WX TMP DP RH WIND PRES REMARKS ASHEVILLE PTSUNNY 82 62 50 VRB5 30.24F JEFFERSON PTSUNNY 74 65 72 S3 30.30F MORGANTON PTSUNNY 84 65 51 CALM 30.25F HICKORY PTSUNNY 84 64 50 NE5 30.20F RUTHERFORDTON PTSUNNY 83 66 57 CALM 30.21F MOUNT AIRY CLOUDY 82 68 62 E6 30.24F BOONE MOSUNNY 79 65 63 SE6 30.30F $$ NCZ021-022-025-041-071-084-088-261900- CENTRAL NORTH CAROLINA CITY SKY/WX TMP DP RH WIND PRES REMARKS CHARLOTTE PTSUNNY 84 64 50 E5 30.19F GREENSBORO CLOUDY 83 62 49 NE8 30.21F WINSTON-SALEM PTSUNNY 81 63 54 VRB6 30.23F RALEIGH-DURHAM CLOUDY 82 58 43 NE8 30.21F FORT BRAGG SUNNY 86 58 38 E6 30.17F FAYETTEVILLE SUNNY 88 58 36 N9 30.17F BURLINGTON SUNNY 83 61 47 VRB5 30.21F LAURINBURG SUNNY 86 60 41 E7 30.18F $$ NCZ011-015-027-028-043-044-047-080-103-261900- NORTHEASTERN NORTH CAROLINA CITY SKY/WX TMP DP RH WIND PRES REMARKS ROCKY MT-WILSO SUNNY 83 60 45 VRB6 30.20F GREENVILLE SUNNY 81 66 61 NE8 30.19F WASHINGTON SUNNY 80 66 62 E3 30.17F ELIZABETH CITY SUNNY 79 66 64 NE8 30.20S MANTEO PTSUNNY 74 69 84 NE13 30.20R CAPE HATTERAS CLOUDY 81 73 76 NE8G18 30.16S $$ NCZ078-087-090-091-093-098-101-261900- SOUTHEASTERN NORTH CAROLINA CITY SKY/WX TMP DP RH WIND PRES REMARKS LUMBERTON SUNNY 88 61 40 NE10 30.16F GOLDSBORO MOSUNNY 85 60 42 N9 30.17F KINSTON SUNNY 82 64 54 NE6 30.18F KENANSVILLE MOSUNNY 83 62 49 CALM 30.18F NEW BERN PTSUNNY 80 68 66 NE3 30.18F CHERRY POINT NOT AVBL BEAUFORT CLOUDY 81 72 74 NE7G17 30.15F JACKSONVILLE CLOUDY 80 68 66 NE9 30.17S WILMINGTON PTSUNNY 81 69 67 E7 30.16S $$

USA.gov is the U.S. government's official web portal to all federal, state and local government web resources and services.